Address 0xe4dfff4e53b7ba23b6a39d0d6d9b4e95c0eb729b

Txn Hash Method
Block
From
To
Value [Txn Fee]
0x53de88e351447792caa5544a8699da7296b38b75f514ae349f6ae38fbf4c0270Transfer248502092023-01-12 15:42:5023 days 21 hrs ago0x8af8485e1f178be06386cd3877fde20626e0284f IN 0xe4dfff4e53b7ba23b6a39d0d6d9b4e95c0eb729b60,067.199580912618762 AVAX0.00052525
0xb4f80adee2b23ea0ca2f6f2a196f793eb2a3b5c9e873e552987d6e58907c0e57Transfer248502052023-01-12 15:42:4223 days 21 hrs ago0x8af8485e1f178be06386cd3877fde20626e0284f IN 0xe4dfff4e53b7ba23b6a39d0d6d9b4e95c0eb729b43,242.689333039008037 AVAX0.00052525
0x6bb79e953f6569f32b7978ff2c6bae48691b53d0d825d1c9db1acd261d1f55b7Transfer248323722023-01-12 5:45:3724 days 7 hrs ago0x8af8485e1f178be06386cd3877fde20626e0284f IN 0xe4dfff4e53b7ba23b6a39d0d6d9b4e95c0eb729b32,353.523923909726618 AVAX0.00052525
0xd17f9296600ed5827a39ed8f467e1b859a30c104b8459a199e438375214799f2Transfer248255512023-01-12 1:55:4924 days 11 hrs ago0x8af8485e1f178be06386cd3877fde20626e0284f IN 0xe4dfff4e53b7ba23b6a39d0d6d9b4e95c0eb729b36,660.530456129772501 AVAX0.00052525
0x6e3d999177817d1aba9fd051fc93ccb9e664eebab49b18bf347427ea0d428f8eTransfer248160822023-01-11 20:44:4824 days 16 hrs ago0xe1a0ddeb9b5b55e489977b438764e60e314e917c IN 0xe4dfff4e53b7ba23b6a39d0d6d9b4e95c0eb729b27,700.341364921883999 AVAX0.00052525
0xfa158d141c78da775f3c7dc71cb4c8cc067ab7d18539547b18b8dbe7b4041b8eTransfer248160822023-01-11 20:44:4824 days 16 hrs ago0x8af8485e1f178be06386cd3877fde20626e0284f IN 0xe4dfff4e53b7ba23b6a39d0d6d9b4e95c0eb729b70,385.545533418480288 AVAX0.00052525
0xf60c8876465e8d1e34d5eecbcf3925293986bb8669dc798cd78c1cd854cb63b4Transfer248157032023-01-11 20:32:0024 days 16 hrs ago0x8af8485e1f178be06386cd3877fde20626e0284f IN 0xe4dfff4e53b7ba23b6a39d0d6d9b4e95c0eb729b70,385.545533418480288 AVAX0.00052525
0x68f392d058b29b4f3ffa36414e4ea465e88a7eb58870856f3e887106a5508bc2Transfer248157032023-01-11 20:32:0024 days 16 hrs ago0x333d17d3b42bf7930dbc6e852ca7bcf560a69003 IN 0xe4dfff4e53b7ba23b6a39d0d6d9b4e95c0eb729b11,581.590617428601769 AVAX0.00052525
0x605a356483ba4f7c18c62c2cbb6f82128cc52dd7bcd96cc3d7c005865bd94beeTransfer248029432023-01-11 13:28:0325 days 1 min ago0x333d17d3b42bf7930dbc6e852ca7bcf560a69003 IN 0xe4dfff4e53b7ba23b6a39d0d6d9b4e95c0eb729b16,620.910242921001479 AVAX0.00052525
0x2b91f4db95b6556794613bac9b27180b3c77ac5813f997a13dd0cb30c224a9feTransfer248029432023-01-11 13:28:0325 days 1 min ago0x8af8485e1f178be06386cd3877fde20626e0284f IN 0xe4dfff4e53b7ba23b6a39d0d6d9b4e95c0eb729b72,081.545421664609705 AVAX0.00052525
0xb57016584f89cf1c832aa9cb63ca71ac9add561604f6d95eedc2d16eb689c4f0Transfer247777652023-01-10 22:50:5025 days 14 hrs ago0xa3682fe8fd73b90a7564585a436ec2d2aeb612ee IN 0xe4dfff4e53b7ba23b6a39d0d6d9b4e95c0eb729b18,934.182333530261083 AVAX0.00052525
0x7c670108f23a04dc97f976be07afc65f10872ab9bf40a12e15db2ac6d0967f30Transfer247777652023-01-10 22:50:5025 days 14 hrs ago0x8af8485e1f178be06386cd3877fde20626e0284f IN 0xe4dfff4e53b7ba23b6a39d0d6d9b4e95c0eb729b71,842.335793235325632 AVAX0.00052525
0x76d68aea715261eb43f17461c76d768df7d259de448164a3c4f740fc42c1eeecTransfer245552122023-01-05 15:34:1830 days 21 hrs ago0x8af8485e1f178be06386cd3877fde20626e0284f IN 0xe4dfff4e53b7ba23b6a39d0d6d9b4e95c0eb729b42,153.832161901360523 AVAX0.00052525
0xb9da6369934545e702b98cfa81bedaa14c1686f84a4ac1897422d56662fe6ffdTransfer245552072023-01-05 15:34:0830 days 21 hrs ago0x8af8485e1f178be06386cd3877fde20626e0284f IN 0xe4dfff4e53b7ba23b6a39d0d6d9b4e95c0eb729b75,689.548453229220784 AVAX0.00052525
0x7a74d0a62a20614c1ab8c1c8aab06553c03b8e6e74e0de1ee901fc50503d7456Transfer245454542023-01-05 10:02:5131 days 3 hrs ago0x8af8485e1f178be06386cd3877fde20626e0284f IN 0xe4dfff4e53b7ba23b6a39d0d6d9b4e95c0eb729b35,651.498806469423162 AVAX0.00052525
0x2a4b606126065891d4d85db09e7fec7c8b2ff961ac398a0bae3416e4330b4ff6Transfer245303732023-01-05 1:29:2731 days 12 hrs ago0x8af8485e1f178be06386cd3877fde20626e0284f IN 0xe4dfff4e53b7ba23b6a39d0d6d9b4e95c0eb729b20,103.647205835783202 AVAX0.00052525
0xea69bb294ea6a20a0a9f41a9d2ee3637bc3eb130bbdd14eb2cdb58c3f3150675Transfer245303642023-01-05 1:29:0931 days 12 hrs ago0x8af8485e1f178be06386cd3877fde20626e0284f IN 0xe4dfff4e53b7ba23b6a39d0d6d9b4e95c0eb729b75,647.025905856568734 AVAX0.00052525
0x9f917097e6f22609e77a10c4371b83bdf17af4d04ce76f4b8605bc7add2bc50cTransfer245303332023-01-05 1:28:0531 days 12 hrs ago0x8af8485e1f178be06386cd3877fde20626e0284f IN 0xe4dfff4e53b7ba23b6a39d0d6d9b4e95c0eb729b75,647.025905856568734 AVAX0.00052525
0x067b2070da8accddee3886a93b07f20873ddbf865071ae3f4532578a0b234697Transfer106623332022-02-08 19:19:26361 days 18 hrs ago0x3dd87411a3754deea8cc52c4cf57e2fc254924cc IN 0xe4dfff4e53b7ba23b6a39d0d6d9b4e95c0eb729b1,915.666156691973395 AVAX0.0126600
0x42b059d14e079693e743e40b0d675a92505efa199aaf63d1aa2280c71b2ad52dTransfer106487022022-02-08 11:52:10362 days 1 hr ago0x333d17d3b42bf7930dbc6e852ca7bcf560a69003 IN 0xe4dfff4e53b7ba23b6a39d0d6d9b4e95c0eb729b4,622.679611914818784 AVAX0.0126600
0x0655210470767e9049b3bfb6097a27ebc57e875392793cd3f57d0bf7c90fe958Transfer106486932022-02-08 11:51:55362 days 1 hr ago0x333d17d3b42bf7930dbc6e852ca7bcf560a69003 IN 0xe4dfff4e53b7ba23b6a39d0d6d9b4e95c0eb729b2,052.486467683331263 AVAX0.0126600
0x2e533019e51b29a4303d6fac6bac612ac01b64da8b29c6aad76b51faff9c984aTransfer106486872022-02-08 11:51:44362 days 1 hr ago0x333d17d3b42bf7930dbc6e852ca7bcf560a69003 IN 0xe4dfff4e53b7ba23b6a39d0d6d9b4e95c0eb729b4,622.679611914818784 AVAX0.0126600
0x666fb9a92f235f9a37a3edf6fb813adfa17024c20269518c94d2b1b6d4d73a26Transfer106486872022-02-08 11:51:44362 days 1 hr ago0x4a4e859565d9b563afc8e63641542455cff0dfd2 IN 0xe4dfff4e53b7ba23b6a39d0d6d9b4e95c0eb729b4,622.679611914818784 AVAX0.0126600
0x0bff3e5b71896aa959eab60ad8c855e2b8cd0a7086bb197d01442a0fc8da374dTransfer106486872022-02-08 11:51:44362 days 1 hr ago0x3dd87411a3754deea8cc52c4cf57e2fc254924cc IN 0xe4dfff4e53b7ba23b6a39d0d6d9b4e95c0eb729b4,622.679611914818784 AVAX0.0126600
0xfb46f563377fa5993d37e7642ce9f8d3444196cf3c892bf6d7560bccb4784e7cTransfer106486872022-02-08 11:51:44362 days 1 hr ago0xe1a0ddeb9b5b55e489977b438764e60e314e917c IN 0xe4dfff4e53b7ba23b6a39d0d6d9b4e95c0eb729b4,622.679611914818784 AVAX0.0126600
[ Download CSV Export 
Parent Txn Hash Block From To Value
Loading

Contract Name:
0

Compiler Version
0

Optimization Enabled:
0

Other Settings:
-NA-
Block Transaction Gas Used Reward
Age Block Fee Address BC Fee Address Voting Power Jailed Incoming
Block Uncle Number Difficulty Gas Used Reward
Loading
Make sure to use the "Vote Down" button for any spammy posts, and the "Vote Up" for interesting conversations.